datetime,release volume
1962-11-01,777.52066
1962-11-02,224.13223
1962-11-03,194.38017
1962-11-04,228.09917
1962-11-05,204.29752
1962-11-06,168.59504
1962-11-07,168.59504
1962-11-08,176.52893
1962-11-09,186.44628
1962-11-10,190.41322
1962-11-11,194.38017
1962-11-12,150.7438
1962-11-13,79.33885
1962-11-14,79.33885
1962-11-15,79.33885
1962-11-16,117.02479
1962-11-17,142.80992
1962-11-18,142.80992
1962-11-19,148.76033
1962-11-20,154.71074
1962-11-21,148.76033
1962-11-22,148.76033
1962-11-23,148.76033
1962-11-24,152.72727
1962-11-25,152.72727
1962-11-26,152.72727
1962-11-27,154.71074
1962-11-28,162.64463
1962-11-29,162.64463
1962-11-30,162.64463
1962-12-01,158.6777
1962-12-02,158.6777
1962-12-03,158.6777
1962-12-04,158.6777
1962-12-05,158.6777
1962-12-06,162.64463
1962-12-07,166.61157
1962-12-08,166.61157
1962-12-09,166.61157
1962-12-10,247.93388
1962-12-11,271.73554
1962-12-12,271.73554
1962-12-13,271.73554
1962-12-14,271.73554
1962-12-15,271.73554
1962-12-16,271.73554
1962-12-17,634.7108
1962-12-18,894.54545
1962-12-19,894.54545
1962-12-20,894.54545
1962-12-21,894.54545
1962-12-22,902.47934
1962-12-23,902.47934
1962-12-24,910.41322
1962-12-25,910.41322
1962-12-26,894.54545
1962-12-27,886.61157
1962-12-28,886.61157
1962-12-29,886.61157
1962-12-30,886.61157
1962-12-31,886.61157
1963-01-01,886.61157
1963-01-02,771.57025
1963-01-03,688.26446
1963-01-04,688.26446
1963-01-05,696.19835
1963-01-06,696.19835
1963-01-07,696.19835
1963-01-08,704.13223
1963-01-09,704.13223
1963-01-10,718.01653
1963-01-11,725.95041
1963-01-12,725.95041
1963-01-13,725.95041
1963-01-14,718.01653
1963-01-15,718.01653
1963-01-16,718.01653
1963-01-17,725.95041
1963-01-18,725.95041
1963-01-19,725.95041
1963-01-20,725.95041
1963-01-21,725.95041
1963-01-22,725.95041
1963-01-23,725.95041
1963-01-24,725.95041
1963-01-25,733.8843
1963-01-26,733.8843
1963-01-27,741.81818
1963-01-28,749.75207
1963-01-29,749.75207
1963-01-30,749.75207
1963-01-31,741.81818
1963-02-01,741.81818
1963-02-02,741.81818
1963-02-03,741.81818
1963-02-04,741.81818
1963-02-05,733.8843
1963-02-06,733.8843
1963-02-07,733.8843
1963-02-08,831.07438
1963-02-09,985.78512
1963-02-10,985.78512
1963-02-11,993.71901
1963-02-12,993.71901
1963-02-13,1001.65289
1963-02-14,1001.65289
1963-02-15,985.78512
1963-02-16,1011.57025
1963-02-17,1011.57025
1963-02-18,1019.50413
1963-02-19,1019.50413
1963-02-20,1027.43802
1963-02-21,1027.43802
1963-02-22,1027.43802
1963-02-23,1035.3719
1963-02-24,1045.28926
1963-02-25,1045.28926
1963-02-26,1053.22314
1963-02-27,1061.15702
1963-02-28,628.76033
1963-03-01,265.78512
1963-03-02,271.73554
1963-03-03,281.65289
1963-03-04,281.65289
1963-03-05,265.78512
1963-03-06,216.19835
1963-03-07,194.38017
1963-03-08,194.38017
1963-03-09,190.41322
1963-03-10,190.41322
1963-03-11,186.44628
1963-03-12,182.47934
1963-03-13,182.47934
1963-03-14,186.44628
1963-03-15,186.44628
1963-03-16,186.44628
1963-03-17,186.44628
1963-03-18,186.44628
1963-03-19,190.41322
1963-03-20,162.64463
1963-03-21,194.38017
1963-03-22,162.64463
1963-03-23,190.41322
1963-03-24,190.41322
1963-03-25,194.38017
1963-03-26,190.41322
1963-03-27,136.8595
1963-03-28,162.64463
1963-03-29,214.21488
1963-03-30,335.20661
1963-03-31,335.20661
1963-04-01,313.38843
1963-04-02,313.38843
1963-04-03,335.20661
1963-04-04,341.15702
1963-04-05,279.66942
1963-04-06,228.09917
1963-04-07,232.06612
1963-04-08,232.06612
1963-04-09,232.06612
1963-04-10,232.06612
1963-04-11,232.06612
1963-04-12,220.16529
1963-04-13,198.34711
1963-04-14,198.34711
1963-04-15,194.38017
1963-04-16,194.38017
1963-04-17,194.38017
1963-04-18,190.41322
1963-04-19,243.96694
1963-04-20,297.52066
1963-04-21,285.61983
1963-04-22,265.78512
1963-04-23,271.73554
1963-04-24,275.70248
1963-04-25,297.52066
1963-04-26,297.52066
1963-04-27,291.57025
1963-04-28,291.57025
1963-04-29,355.04132
1963-04-30,420.49587
1963-05-01,313.38843
1963-05-02,265.78512
1963-05-03,265.78512
1963-05-04,265.78512
1963-05-05,265.78512
1963-05-06,265.78512
1963-05-07,265.78512
1963-05-08,275.70248
1963-05-09,271.73554
1963-05-10,265.78512
1963-05-11,265.78512
1963-05-12,261.81818
1963-05-13,265.78512
1963-05-14,261.81818
1963-05-15,245.95041
1963-05-16,238.01653
1963-05-17,228.09917
1963-05-18,232.06612
1963-05-19,232.06612
1963-05-20,238.01653
1963-05-21,238.01653
1963-05-22,238.01653
1963-05-23,238.01653
1963-05-24,238.01653
1963-05-25,241.98347
1963-05-26,241.98347
1963-05-27,232.06612
1963-05-28,232.06612
1963-05-29,255.86777
1963-05-30,335.20661
1963-05-31,323.30579
1963-06-01,301.4876
1963-06-02,301.4876
1963-06-03,291.57025
1963-06-04,285.61983
1963-06-05,251.90083
1963-06-06,238.01653
1963-06-07,238.01653
1963-06-08,241.98347
1963-06-09,241.98347
1963-06-10,241.98347
1963-06-11,241.98347
1963-06-12,241.98347
1963-06-13,241.98347
1963-06-14,238.01653
1963-06-15,232.06612
1963-06-16,232.06612
1963-06-17,238.01653
1963-06-18,241.98347
1963-06-19,238.01653
1963-06-20,232.06612
1963-06-21,232.06612
1963-06-22,238.01653
1963-06-23,241.98347
1963-06-24,251.90083
1963-06-25,261.81818
1963-06-26,255.86777
1963-06-27,232.06612
1963-06-28,232.06612
1963-06-29,232.06612
1963-06-30,241.98347
1963-07-01,241.98347
1963-07-02,228.09917
1963-07-03,206.28099
1963-07-04,202.31405
1963-07-05,206.28099
1963-07-06,206.28099
1963-07-07,210.24793
1963-07-08,216.19835
1963-07-09,216.19835
1963-07-10,210.24793
1963-07-11,206.28099
1963-07-12,206.28099
1963-07-13,206.28099
1963-07-14,206.28099
1963-07-15,210.24793
1963-07-16,210.24793
1963-07-17,210.24793
1963-07-18,210.24793
1963-07-19,220.16529
1963-07-20,220.16529
1963-07-21,220.16529
1963-07-22,220.16529
1963-07-23,216.19835
1963-07-24,220.16529
1963-07-25,202.31405
1963-07-26,180.49587
1963-07-27,180.49587
1963-07-28,180.49587
1963-07-29,180.49587
1963-07-30,180.49587
1963-07-31,182.47934
1963-08-01,194.38017
1963-08-02,194.38017
1963-08-03,194.38017
1963-08-04,194.38017
1963-08-05,194.38017
1963-08-06,194.38017
1963-08-07,190.41322
1963-08-08,186.44628
1963-08-09,194.38017
1963-08-10,198.34711
1963-08-11,198.34711
1963-08-12,198.34711
1963-08-13,198.34711
1963-08-14,198.34711
1963-08-15,202.31405
1963-08-16,208.26446
1963-08-17,210.24793
1963-08-18,210.24793
1963-08-19,206.28099
1963-08-20,190.41322
1963-08-21,182.47934
1963-08-22,186.44628
1963-08-23,194.38017
1963-08-24,202.31405
1963-08-25,206.28099
1963-08-26,206.28099
1963-08-27,206.28099
1963-08-28,220.16529
1963-08-29,224.13223
1963-08-30,228.09917
1963-08-31,228.09917
1963-09-01,228.09917
1963-09-02,224.13223
1963-09-03,202.31405
1963-09-04,176.52893
1963-09-05,158.6777
1963-09-06,176.52893
1963-09-07,206.28099
1963-09-08,206.28099
1963-09-09,194.38017
1963-09-10,186.44628
1963-09-11,182.47934
1963-09-12,188.42975
1963-09-13,202.31405
1963-09-14,198.34711
1963-09-15,202.31405
1963-09-16,202.31405
1963-09-17,198.34711
1963-09-18,214.21488
1963-09-19,245.95041
1963-09-20,251.90083
1963-09-21,255.86777
1963-09-22,261.81818
1963-09-23,261.81818
1963-09-24,265.78512
1963-09-25,343.1405
1963-09-26,305.45455
1963-09-27,241.98347
1963-09-28,238.01653
1963-09-29,241.98347
1963-09-30,245.95041
1963-10-01,347.10744
1963-10-02,228.09917
1963-10-03,238.01653
1963-10-04,238.01653
1963-10-05,238.01653
1963-10-06,218.18182
1963-10-07,218.18182
1963-10-08,178.5124
1963-10-09,257.85124
1963-10-10,257.85124
1963-10-11,238.01653
1963-10-12,218.18182
1963-10-13,218.18182
1963-10-14,257.85124
1963-10-15,257.85124
1963-10-16,247.93388
1963-10-17,238.01653
1963-10-18,198.34711
1963-10-19,247.93388
1963-10-20,247.93388
1963-10-21,247.93388
1963-10-22,247.93388
1963-10-23,309.42149
1963-10-24,267.7686
1963-10-25,271.73554
1963-10-26,277.68595
1963-10-27,277.68595
1963-10-28,283.63636
1963-10-29,247.93388
1963-10-30,277.68595
1963-10-31,390.7438
1963-11-01,378.84298
1963-11-02,374.87603
1963-11-03,378.84298
1963-11-04,396.69421
1963-11-05,390.7438
1963-11-06,390.7438
1963-11-07,418.5124
1963-11-08,1402.31405
1963-11-09,1709.75207
1963-11-10,436.36364
1963-11-11,394.71074
1963-11-12,341.15702
1963-11-13,349.09091
1963-11-14,414.54545
1963-11-15,614.87603
1963-11-16,721.98347
1963-11-17,725.95041
1963-11-18,515.70248
1963-11-19,535.53719
1963-11-20,654.54545
1963-11-21,759.66942
1963-11-22,745.78512
1963-11-23,678.34711
1963-11-24,674.38017
1963-11-25,674.38017
1963-11-26,1043.30579
1963-11-27,648.59504
1963-11-28,567.27273
1963-11-29,571.23967
1963-11-30,638.67769
1963-12-01,666.44628
1963-12-02,632.72727
1963-12-03,787.43802
1963-12-04,837.02479
1963-12-05,848.92562
1963-12-06,833.05785
1963-12-07,848.92562
1963-12-08,805.28926
1963-12-09,1110.7438
1963-12-10,1380.49587
1963-12-11,1787.10744
1963-12-12,1872.39669
1963-12-13,2102.47934
1963-12-14,2181.81818
1963-12-15,1662.14876
1963-12-16,1646.28099
1963-12-17,1638.34711
1963-12-18,1517.35549
1963-12-19,1622.47934
1963-12-20,1727.60331
1963-12-21,1693.8843
1963-12-22,1691.90083
1963-12-23,1719.66942
1963-12-24,1761.32231
1963-12-25,1789.09091
1963-12-26,1759.33884
1963-12-27,1507.43802
1963-12-28,1773.22314
1963-12-29,1783.1405
1963-12-30,1933.8843
1963-12-31,1765.28926
1964-01-01,1687.93388
1964-01-02,1689.91736
1964-01-03,1685.95041
1964-01-04,1701.81818
1964-01-05,1680.0
1964-01-06,1943.80165
1964-01-07,2003.30579
1964-01-08,2003.30579
1964-01-09,2003.30579
1964-01-10,2042.97521
1964-01-11,2023.1405
1964-01-12,2003.30579
1964-01-13,1947.7686
1964-01-14,1983.47107
1964-01-15,1943.80165
1964-01-16,1967.60331
1964-01-17,2062.80992
1964-01-18,2023.1405
1964-01-19,1945.78512
1964-01-20,1983.47107
1964-01-21,1789.09091
1964-01-22,1735.53719
1964-01-23,1739.50413
1964-01-24,1749.42149
1964-01-25,1769.2562
1964-01-26,1743.47107
1964-01-27,1860.49587
1964-01-28,1920.0
1964-01-29,1884.29752
1964-01-30,1906.1157
1964-01-31,1914.04959
1964-02-01,1906.1157
1964-02-02,1884.29752
1964-02-03,1920.0
1964-02-04,2003.30579
1964-02-05,2003.30579
1964-02-06,1900.16529
1964-02-07,1927.93388
1964-02-08,1882.31405
1964-02-09,1834.71074
1964-02-10,1921.98347
1964-02-11,2439.66942
1964-02-12,2360.33058
1964-02-13,1834.71074
1964-02-14,1797.02479
1964-02-15,1874.38017
1964-02-16,1808.92562
1964-02-17,1947.7686
1964-02-18,1977.52066
1964-02-19,1539.17355
1964-02-20,1896.19835
1964-02-21,1923.96694
1964-02-22,1931.90083
1964-02-23,1918.01653
1964-02-24,1939.83471
1964-02-25,1846.61157
1964-02-26,1824.79339
1964-02-27,1941.81818
1964-02-28,1812.89256
1964-02-29,1783.1405
1964-03-01,1156.36364
1964-03-02,1190.08264
1964-03-03,1219.83471
1964-03-04,1235.70248
1964-03-05,1201.98347
1964-03-06,1201.98347
1964-03-07,1190.08264
1964-03-08,1213.8843
1964-03-09,1182.14876
1964-03-10,1215.86777
1964-03-11,1269.42161
1964-03-12,1217.85124
1964-03-13,1227.7686
1964-03-14,1194.04959
1964-03-15,1203.96694
1964-03-16,1225.78512
1964-03-17,1174.21488
1964-03-18,1160.33058
1964-03-19,1192.06612
1964-03-20,1186.1157
1964-03-21,1174.21488
1964-03-22,1164.29752
1964-03-23,1194.04959
1964-03-24,1194.04959
1964-03-25,1205.95041
1964-03-26,1172.2314
1964-03-27,1170.24793
1964-03-28,1104.79339
1964-03-29,1106.77686
1964-03-30,1114.71074
1964-03-31,1146.44628
1964-04-01,1176.19835
1964-04-02,1170.24793
1964-04-03,1160.33058
1964-04-04,1104.79339
1964-04-05,1102.80992
1964-04-06,1128.59504
1964-04-07,1130.57851
1964-04-08,1164.29752
1964-04-09,1186.1157
1964-04-10,1142.47934
1964-04-11,1114.71074
1964-04-12,1136.52893
1964-04-13,1168.26446
1964-04-14,1170.24793
1964-04-15,1150.41322
1964-04-16,1114.71074
1964-04-17,1118.67769
1964-04-18,1428.09917
1964-04-19,1342.80992
1964-04-20,1200.0
1964-04-21,952.06612
1964-04-22,928.26446
1964-04-23,1084.95868
1964-04-24,1128.59504
1964-04-25,1180.16529
1964-04-26,1205.95041
1964-04-27,1322.97521
1964-04-28,1267.43802
1964-04-29,1287.27273
1964-04-30,1168.26446
1964-05-01,1219.83471
1964-05-02,1658.18182
1964-05-03,1614.54545
1964-05-04,1517.35549
1964-05-05,1511.40496
1964-05-06,1695.86777
1964-05-07,1810.90909
1964-05-08,2161.98347
1964-05-09,2380.16529
1964-05-10,1957.68595
1964-05-11,2499.17355
1964-05-12,2538.84322
1964-05-13,2479.33884
1964-05-14,2499.17355
1964-05-15,2400.0
1964-05-16,2320.66116
1964-05-17,2221.4876
1964-05-18,3114.04959
1964-05-19,4165.28926
1964-05-20,4105.78512
1964-05-21,4145.45455
1964-05-22,4165.28926
1964-05-23,3907.43802
1964-05-24,3808.26446
1964-05-25,4264.46281
1964-05-26,4105.78512
1964-05-27,4343.80165
1964-05-28,4264.46281
1964-05-29,4244.6281
1964-05-30,3986.77686
1964-05-31,3728.92562
1964-06-01,3649.58678
1964-06-02,3748.76033
1964-06-03,3629.75207
1964-06-04,3133.8843
1964-06-05,3272.72727
1964-06-06,2280.99174
1964-06-07,1965.61983
1964-06-08,3233.05785
1964-06-09,3252.89256
1964-06-10,3252.89256
1964-06-11,3014.87603
1964-06-12,2598.34711
1964-06-13,2280.99174
1964-06-14,2023.1405
1964-06-15,2499.17355
1964-06-16,2519.00826
1964-06-17,2439.66942
1964-06-18,2538.84322
1964-06-19,2558.67769
1964-06-20,2261.15702
1964-06-21,2320.66116
1964-06-22,2558.67769
1964-06-23,2737.19008
1964-06-24,2717.35537
1964-06-25,2737.19008
1964-06-26,2737.19008
1964-06-27,3451.23967
1964-06-28,3213.22314
1964-06-29,3609.91736
1964-06-30,3808.26446
1964-07-01,3728.92562
1964-07-02,3590.08264
1964-07-03,3609.91736
1964-07-04,3193.38843
1964-07-05,3213.22314
1964-07-06,4165.28926
1964-07-07,5038.01653
1964-07-08,5157.02479
1964-07-09,5256.19835
1964-07-10,5157.02479
1964-07-11,4740.49587
1964-07-12,4383.47107
1964-07-13,6267.7686
1964-07-14,6723.96694
1964-07-15,5990.08264
1964-07-16,5295.86777
1964-07-17,4621.4876
1964-07-18,5018.18182
1964-07-19,3689.2562
1964-07-20,4244.6281
1964-07-21,4323.96694
1964-07-22,4601.65289
1964-07-23,6862.80992
1964-07-24,6704.13223
1964-07-25,3966.94215
1964-07-26,3609.91736
1964-07-27,5771.90083
1964-07-28,5593.38843
1964-07-29,5236.36364
1964-07-30,5117.35537
1964-07-31,5236.36364
1964-08-01,5157.02479
1964-08-02,3649.58678
1964-08-03,4938.84298
1964-08-04,4859.50413
1964-08-05,4800.0
1964-08-06,4720.66116
1964-08-07,5355.3719
1964-08-08,4879.33884
1964-08-09,3292.56198
1964-08-10,4542.14876
1964-08-11,4641.32231
1964-08-12,4839.66942
1964-08-13,4502.47934
1964-08-14,4720.66116
1964-08-15,4661.15702
1964-08-16,4006.61157
1964-08-17,3550.41322
1964-08-18,3114.04959
1964-08-19,3114.04959
1964-08-20,3649.58678
1964-08-21,3590.08264
1964-08-22,3649.58678
1964-08-23,2995.04132
1964-08-24,3768.59504
1964-08-25,3332.2314
1964-08-26,3312.39669
1964-08-27,3352.06612
1964-08-28,3233.05785
1964-08-29,3094.21488
1964-08-30,1620.49587
1964-08-31,3510.7438
1964-09-01,3788.42975
1964-09-02,3669.42149
1964-09-03,3847.93388
1964-09-04,3847.93388
1964-09-05,1900.16529
1964-09-06,825.12397
1964-09-07,731.90083
1964-09-08,3609.91736
1964-09-09,4284.29752
1964-09-10,4145.45455
1964-09-11,4085.95041
1964-09-12,2876.03306
1964-09-13,1769.2562
1964-09-14,3867.7686
1964-09-15,4046.28099
1964-09-16,4066.1157
1964-09-17,4026.44628
1964-09-18,4363.63636
1964-09-19,4185.12397
1964-09-20,4066.1157
1964-09-21,5514.04959
1964-09-22,5553.71901
1964-09-23,5752.06612
1964-09-24,6148.76033
1964-09-25,6327.27273
1964-09-26,6882.64463
1964-09-27,5613.22314
1964-09-28,7041.32231
1964-09-29,6961.98347
1964-09-30,7080.99174
1964-10-01,6961.98347
1964-10-02,7100.82645
1964-10-03,4403.30579
1964-10-04,4066.1157
1964-10-05,4066.1157
1964-10-06,4760.33058
1964-10-07,4879.33884
1964-10-08,4958.67769
1964-10-09,4958.67769
1964-10-10,4641.32231
1964-10-11,4363.63636
1964-10-12,5176.8595
1964-10-13,5196.69421
1964-10-14,5454.54545
1964-10-15,5474.38017
1964-10-16,5355.3719
1964-10-17,4800.0
1964-10-18,4958.67769
1964-10-19,5434.71074
1964-10-20,5494.21488
1964-10-21,4978.5124
1964-10-22,5355.3719
1964-10-23,5474.38017
1964-10-24,5256.19835
1964-10-25,4720.66116
1964-10-26,5295.86777
1964-10-27,4879.33884
1964-10-28,4859.50413
1964-10-29,4780.16529
1964-10-30,5494.21488
1964-10-31,5196.69421
1964-11-01,4839.66942
1964-11-02,5593.38843
1964-11-03,4482.64463
1964-11-04,4264.46281
1964-11-05,4224.79339
1964-11-06,4284.29752
1964-11-07,4165.28926
1964-11-08,3847.93388
1964-11-09,4125.61983
1964-11-10,4145.45455
1964-11-11,4046.28099
1964-11-12,4323.96694
1964-11-13,4403.30579
1964-11-14,5613.22314
1964-11-15,5315.70248
1964-11-16,4978.5124
1964-11-17,4641.32231
1964-11-18,5355.3719
1964-11-19,4998.34711
1964-11-20,4899.17355
1964-11-21,5573.5542
1964-11-22,5196.69421
1964-11-23,4661.15702
1964-11-24,4641.32231
1964-11-25,4522.31405
1964-11-26,4383.47107
1964-11-27,4462.80992
1964-11-28,4502.47934
1964-11-29,4105.78512
1964-11-30,4819.83471
1964-12-01,4760.33058
1964-12-02,4879.33884
1964-12-03,5712.39669
1964-12-04,5890.90909
1964-12-05,6644.6281
1964-12-06,6327.27273
1964-12-07,7021.4876
1964-12-08,6902.47934
1964-12-09,6803.30579
1964-12-10,7041.32231
1964-12-11,4561.98347
1964-12-12,4284.29752
1964-12-13,4899.17355
1964-12-14,7001.65289
1964-12-15,6644.6281
1964-12-16,6327.27273
1964-12-17,6386.77686
1964-12-18,6922.31405
1964-12-19,6664.46281
1964-12-20,6089.2562
1964-12-21,6565.28926
1964-12-22,6069.42197
1964-12-23,6049.58678
1964-12-24,6604.95868
1964-12-25,5633.05785
1964-12-26,6069.42197
1964-12-27,6168.59504
1964-12-28,7200.0
1964-12-29,7299.17355
1964-12-30,7319.00826
1964-12-31,7021.4876
1965-01-01,6188.42975
1965-01-02,6565.28926
1965-01-03,6148.76033
1965-01-04,7140.49587
1965-01-05,7061.15702
1965-01-06,6505.78512
1965-01-07,7041.32231
1965-01-08,7100.82645
1965-01-09,7061.15702
1965-01-10,6287.60331
1965-01-11,7259.50413
1965-01-12,6009.91736
1965-01-13,5811.57025
1965-01-14,2856.19835
1965-01-15,3570.24793
1965-01-16,7874.38017
1965-01-17,6466.1157
1965-01-18,8191.73554
1965-01-19,8152.06612
1965-01-20,8033.05785
1965-01-21,8092.56198
1965-01-22,8052.89256
1965-01-23,7596.69421
1965-01-24,6823.1405
1965-01-25,7616.52893
1965-01-26,8092.56198
1965-01-27,8370.24793
1965-01-28,7993.38843
1965-01-29,7814.87603
1965-01-30,7160.33058
1965-01-31,6624.79339
1965-02-01,7814.87603
1965-02-02,8231.40496
1965-02-03,7795.04132
1965-02-04,8052.89256
1965-02-05,8132.2314
1965-02-06,8072.72727
1965-02-07,7438.01653
1965-02-08,8211.57025
1965-02-09,8211.57025
1965-02-10,8191.73554
1965-02-11,8013.22314
1965-02-12,7914.04959
1965-02-13,7814.87603
1965-02-14,7438.01653
1965-02-15,8211.57025
1965-02-16,8449.58678
1965-02-17,7973.55372
1965-02-18,7596.69421
1965-02-19,8033.05785
1965-02-20,7755.3719
1965-02-21,7100.82645
1965-02-22,7557.02479
1965-02-23,8072.72727
1965-02-24,5811.57025
1965-02-25,4403.30579
1965-02-26,6565.28926
1965-02-27,7477.68595
1965-02-28,6823.1405
1965-03-01,6267.7686
1965-03-02,6823.1405
1965-03-03,6545.45455
1965-03-04,6188.42975
1965-03-05,6109.09091
1965-03-06,5672.72727
1965-03-07,4998.34711
1965-03-08,6624.79339
1965-03-09,8052.89256
1965-03-10,8132.2314
1965-03-11,8112.39669
1965-03-12,8132.2314
1965-03-13,8052.89256
1965-03-14,6902.47934
1965-03-15,7874.38017
1965-03-16,8092.56198
1965-03-17,7676.03306
1965-03-18,7656.19835
1965-03-19,8052.89256
1965-03-20,8033.05785
1965-03-21,8052.89256
1965-03-22,8052.89256
1965-03-23,8072.72727
1965-03-24,8072.72727
1965-03-25,8112.39669
1965-03-26,8152.06612
1965-03-27,8052.89256
1965-03-28,7735.53719
1965-03-29,8072.72727
1965-03-30,8092.56198
1965-03-31,8092.56198
1965-04-01,6704.13223
1965-04-02,8052.89256
1965-04-03,7814.87603
1965-04-04,8092.56198
1965-04-05,8072.72727
1965-04-06,8013.22314
1965-04-07,7695.86777
1965-04-08,7398.34711
1965-04-09,6803.30579
1965-04-10,5176.8595
1965-04-11,6307.43802
1965-04-12,6961.98347
1965-04-13,7497.52066
1965-04-14,7477.68595
1965-04-15,7517.35537
1965-04-16,6803.30579
1965-04-17,6743.80165
1965-04-18,7021.4876
1965-04-19,7061.15702
1965-04-20,7061.15702
1965-04-21,6961.98347
1965-04-22,7001.65289
1965-04-23,7080.99174
1965-04-24,7100.82645
1965-04-25,7180.16529
1965-04-26,6942.14876
1965-04-27,4165.28926
1965-04-28,3788.42975
1965-04-29,3768.59504
1965-04-30,5256.19835
1965-05-01,1745.45455
1965-05-02,1676.03306
1965-05-03,1715.70248
1965-05-04,2201.65289
1965-05-05,2479.33884
1965-05-06,2499.17355
1965-05-07,4522.31405
1965-05-08,1755.3719
1965-05-09,1158.34711
1965-05-10,1646.28099
1965-05-11,1057.19008
1965-05-12,983.80165
1965-05-13,1080.99174
1965-05-14,952.06612
1965-05-15,912.39669
1965-05-16,3332.2314
1965-05-17,1320.99174
1965-05-18,1979.50413
1965-05-19,3629.75207
1965-05-20,3173.55372
1965-05-21,2836.36364
1965-05-22,3114.04959
1965-05-23,3213.22314
1965-05-24,2757.02479
1965-05-25,2717.35537
1965-05-26,2737.19008
1965-05-27,2816.52893
1965-05-28,2280.99174
1965-05-29,2102.47934
1965-05-30,1031.40496
1965-05-31,882.64463
1965-06-01,944.13223
1965-06-02,1378.5124
1965-06-03,1368.59504
1965-06-04,1358.67769
1965-06-05,1904.13223
1965-06-06,1685.95041
1965-06-07,3629.75207
1965-06-08,5117.35537
1965-06-09,4561.98347
1965-06-10,5137.19008
1965-06-11,3709.09091
1965-06-12,2499.17355
1965-06-13,2598.34711
1965-06-14,3292.56198
1965-06-15,3451.23967
1965-06-16,4323.96694
1965-06-17,3094.21488
1965-06-18,3391.73554
1965-06-19,4125.61983
1965-06-20,920.33058
1965-06-21,2757.02479
1965-06-22,3847.93388
1965-06-23,4323.96694
1965-06-24,4403.30579
1965-06-25,3689.2562
1965-06-26,1517.35549
1965-06-27,1864.46281
1965-06-28,1428.09917
1965-06-29,1398.34711
1965-06-30,1884.29752
1965-07-01,1049.2562
1965-07-02,944.13223
1965-07-03,842.97521
1965-07-04,967.93388
1965-07-05,835.04132
1965-07-06,928.26446
1965-07-07,759.66942
1965-07-08,1211.90083
1965-07-09,775.53719
1965-07-10,936.19835
1965-07-11,813.22314
1965-07-12,767.60331
1965-07-13,767.60331
1965-07-14,767.60331
1965-07-15,759.66942
1965-07-16,1715.70248
1965-07-17,874.71074
1965-07-18,753.71901
1965-07-19,1303.1405
1965-07-20,874.71074
1965-07-21,813.22314
1965-07-22,842.97521
1965-07-23,835.04132
1965-07-24,813.22314
1965-07-25,858.84298
1965-07-26,827.10744
1965-07-27,821.15702
1965-07-28,813.22314
1965-07-29,805.28926
1965-07-30,1979.50413
1965-07-31,1080.99174
1965-08-01,805.28926
1965-08-02,821.15702
1965-08-03,1293.22314
1965-08-04,896.52893
1965-08-05,3054.54545
1965-08-06,960.0
1965-08-07,797.35537
1965-08-08,797.35537
1965-08-09,821.15702
1965-08-10,797.35537
1965-08-11,805.28926
1965-08-12,789.42149
1965-08-13,850.90909
1965-08-14,789.42149
1965-08-15,789.42149
1965-08-16,789.42149
1965-08-17,912.39669
1965-08-18,936.19835
1965-08-19,1049.2562
1965-08-20,1201.98347
1965-08-21,789.42149
1965-08-22,783.47107
1965-08-23,866.77686
1965-08-24,1166.28099
1965-08-25,797.35537
1965-08-26,783.47107
1965-08-27,783.47107
1965-08-28,783.47107
1965-08-29,775.53719
1965-08-30,858.84298
1965-08-31,2221.4876
1965-09-01,1148.42975
1965-09-02,835.04132
1965-09-03,983.80165
1965-09-04,767.60331
1965-09-05,759.66942
1965-09-06,767.60331
1965-09-07,858.84298
1965-09-08,745.78512
1965-09-09,759.66942
1965-09-10,759.66942
1965-09-11,1158.34711
1965-09-12,759.66942
1965-09-13,783.47107
1965-09-14,759.66942
1965-09-15,753.71901
1965-09-16,753.71901
1965-09-17,1735.53719
1965-09-18,2439.66942
1965-09-19,2419.83471
1965-09-20,2439.66942
1965-09-21,1979.50413
1965-09-22,2657.85124
1965-09-23,2499.17355
1965-09-24,1184.13223
1965-09-25,1447.93388
1965-09-26,1854.54545
1965-09-27,2439.66942
1965-09-28,2320.66116
1965-09-29,2657.85124
1965-09-30,2261.15702
1965-10-01,2638.01653
1965-10-02,965.95041
1965-10-03,1063.1405
1965-10-04,961.98347
1965-10-05,1959.66942
1965-10-06,1594.71074
1965-10-07,1606.61157
1965-10-08,2677.68595
1965-10-09,3133.8843
1965-10-10,2519.00826
1965-10-11,3411.57025
1965-10-12,3510.7438
1965-10-13,3173.55372
1965-10-14,3193.38843
1965-10-15,3550.41322
1965-10-16,3054.54545
1965-10-17,3728.92562
1965-10-18,3292.56198
1965-10-19,3570.24793
1965-10-20,3451.23967
1965-10-21,3669.42149
1965-10-22,3768.59504
1965-10-23,3728.92562
1965-10-24,4403.30579
1965-10-25,870.7438
1965-10-26,842.97521
1965-10-27,1703.80165
1965-10-28,1441.98347
1965-10-29,1761.32231
1965-10-30,1701.81818
1965-10-31,1646.28099
1965-11-01,2499.17355
1965-11-02,2558.67769
1965-11-03,2519.00826
1965-11-04,2023.1405
1965-11-05,2558.67769
1965-11-06,2677.68595
1965-11-07,2479.33884
1965-11-08,2538.84322
1965-11-09,2578.5124
1965-11-10,2538.84322
1965-11-11,2538.84322
1965-11-12,2915.70248
1965-11-13,4462.80992
1965-11-14,4700.82645
1965-11-15,4601.65289
1965-11-16,3014.87603
1965-11-17,5057.85124
1965-11-18,5454.54545
1965-11-19,5454.54545
1965-11-20,5434.71074
1965-11-21,5434.71074